Wind_Speed
14 14 13 13 12 10 9 7 5 3 3 3 4 5 6 7 7 7 8 8 8 8 8 9 9 9 10 12 12 12 11 10 11 11 10 11 10 10 10 10 10 11 11
15 15 14 14 13 11 10 8 7 6 5 4 5 6 6 7 7 7 8 7 8 8 8 7 8 8 9 11 12 11 11 10 10 10 11 10 10 10 11 11 11 11 11
15 15 15 15 14 13 12 10 9 8 7 6 6 6 7 7 7 7 7 7 7 7 7 7 8 8 9 10 11 11 10 10 10 10 10 10 10 11 11 12 12 12 12
15 16 16 15 15 14 13 11 10 10 9 8 7 7 7 7 7 7 7 6 6 6 7 7 7 8 9 9 10 10 10 10 10 10 10 10 10 11 12 13 14 14 14
15 15 16 16 15 14 13 12 11 10 9 9 8 8 8 8 7 7 7 6 6 5 6 6 6 7 8 8 9 10 9 9 9 9 10 10 10 11 12 13 14 15 15
15 15 15 16 16 15 14 13 12 11 11 10 9 8 8 8 8 7 7 6 5 5 5 5 5 5 5 7 8 9 9 9 9 9 9 9 9 9 10 11 12 13 14
14 15 15 15 15 15 14 13 13 12 12 11 10 9 8 8 8 7 7 6 5 5 4 4 4 4 4 5 6 7 8 9 8 9 9 8 8 7 8 9 10 11 12
12 13 14 14 15 14 14 13 13 13 12 11 11 10 9 8 8 7 6 5 5 4 3 3 3 3 3 4 5 5 6 7 8 8 8 8 8 7 7 8 9 10 11
11 12 13 14 14 14 13 12 12 11 11 10 10 10 9 9 8 7 6 5 5 4 3 3 3 3 3 3 3 4 4 5 7 7 8 8 8 7 7 7 8 9 11
10 11 12 12 13 13 12 12 11 11 10 10 9 9 8 7 7 7 6 5 5 4 4 3 3 3 2 1 1 2 3 4 5 6 7 7 7 8 8 8 8 9 9
8 9 10 11 12 12 11 11 11 10 10 9 8 7 7 6 6 6 6 6 5 4 3 3 2 2 2 1 1 1 2 3 3 4 5 6 7 7 8 8 9 9 10
7 7 8 10 10 10 10 10 10 10 9 8 7 6 6 6 6 5 4 4 3 3 3 2 2 1 1 1 1 2 3 3 3 4 5 6 7 7 8 8 9 10 11
5 6 7 8 9 9 9 9 9 10 9 8 7 7 6 6 5 5 4 3 2 1 0 1 1 1 1 2 2 3 4 4 5 6 7 7 8 9 9 10 11 12 13
4 4 5 6 7 8 8 9 9 9 8 8 7 7 6 5 4 4 3 3 2 1 2 2 3 3 3 4 4 4 5 6 7 7 8 9 9 10 11 12 13 13 14
3 3 4 5 6 7 7 7 8 8 8 8 7 6 5 5 4 4 4 4 3 3 3 4 4 5 5 5 5 6 7 7 8 9 10 10 10 11 11 12 13 14 14
2 3 3 4 5 5 6 6 7 7 7 7 7 6 5 5 5 5 5 5 5 4 5 5 6 6 7 7 8 8 9 10 10 11 11 12 12 12 12 13 14 15 16
3 3 4 4 5 5 5 6 6 6 6 6 6 6 6 5 6 6 6 6 6 6 7 7 8 8 9 10 10 11 12 12 12 13 14 14 15 15 16 15 15 16 17
5 5 5 5 5 6 6 6 6 6 6 6 6 7 7 7 7 7 8 8 8 8 8 9 9 10 11 11 12 14 14 15 15 15 16 16 17 18 18 19 19 19 19
7 6 7 7 7 7 7 7 7 7 7 8 8 8 8 8 9 9 10 10 10 10 10 11 12 13 13 14 15 15 16 17 17 18 18 19 19 20 21 22 22 22 23
8 8 8 8 8 8 8 8 9 9 9 9 9 10 10 10 11 11 12 12 12 13 13 14 14 15 16 16 17 18 19 20 20 20 20 21 22 22 23 24 24 25 26
10 10 9 10 10 10 10 10 10 11 11 11 11 11 12 13 13 14 14 15 15 16 16 17 17 17 18 19 19 20 21 22 23 23 24 24 25 26 26 27 28 29 30
13 12 12 12 12 12 12 12 12 13 13 13 13 14 14 15 15 16 16 17 17 18 18 19 20 20 21 21 22 23 24 25 25 26 27 27 28 29 30 31 31 32 33
15 15 15 15 14 14 14 14 14 14 15 16 16 16 17 17 18 18 18 19 19 20 21 21 22 23 23 24 25 26 27 27 28 28 29 30 31 32 33 35 35 36 37
17 17 17 16 16 16 16 16 16 17 17 18 18 18 19 19 20 20 21 21 22 23 23 24 25 25 26 27 27 28 29 29 30 31 32 32 33 34 35 37 38 39 40
19 19 18 18 18 18 18 19 19 19 19 20 20 21 22 22 23 23 24 24 25 26 26 27 28 28 29 29 30 31 31 32 33 34 35 36 37 38 38 40 41 42 43
21 21 20 20 20 20 21 21 21 21 22 22 23 23 24 25 26 26 27 28 28 29 30 31 31 31 32 33 33 34 35 36 36 37 38 40 41 42 42 43 44 46 47
Wind_Direction
26 24 20 21 23 26 29 34 48 64 95 136 154 162 172 179 186 189 191 193 191 191 199 201 201 200 203 203 201 202 203 203 208 211 215 219 225 229 235 237 236 236 236
29 27 28 29 32 34 39 46 60 68 84 115 137 148 154 163 171 177 180 181 184 187 191 196 194 197 199 200 201 202 205 206 209 213 218 222 227 232 236 239 239 239 237
32 31 33 35 37 41 45 52 64 69 81 98 119 137 145 152 158 159 163 167 175 181 189 193 194 196 199 202 201 203 204 206 211 217 222 227 232 236 241 243 241 241 240
35 36 38 40 42 46 50 55 63 70 78 88 104 121 134 142 145 147 151 158 164 171 182 189 196 199 200 202 202 203 206 209 214 218 224 231 237 242 247 247 246 243 242
39 40 41 42 45 49 51 56 64 69 74 84 96 111 123 130 135 138 141 147 153 163 175 187 201 203 204 203 205 207 205 208 215 220 227 233 241 248 252 251 247 243 239
42 43 43 44 46 49 52 56 62 66 72 80 90 102 114 122 127 130 134 139 143 152 166 180 194 192 202 208 211 209 209 213 219 224 230 237 244 250 252 245 239 236 237
43 42 43 46 47 50 53 56 61 65 70 78 86 95 103 110 117 121 126 131 139 142 151 171 183 189 201 209 208 209 214 219 222 226 231 240 246 249 247 241 238 237 239
42 43 45 46 48 51 54 57 61 64 68 75 83 91 99 104 111 118 125 130 133 135 140 157 171 175 192 208 205 212 218 223 226 230 232 238 240 243 240 238 236 239 240
44 46 47 47 48 51 54 57 60 60 62 67 79 90 97 97 102 103 107 115 126 131 131 132 137 147 161 186 198 204 214 221 224 227 232 237 237 240 242 243 239 240 240
47 47 48 48 48 48 52 54 56 56 56 64 75 88 94 97 98 99 100 102 110 117 120 117 119 133 141 139 167 188 215 219 221 228 231 236 239 243 248 247 247 245 245
47 48 47 47 47 48 50 52 52 51 56 62 70 81 86 91 94 99 96 95 98 97 108 113 112 120 131 132 149 193 220 231 230 235 239 239 240 245 245 249 253 253 249
46 47 44 43 44 45 46 47 48 48 52 57 63 69 75 78 77 81 85 92 94 90 100 126 132 120 147 184 221 235 248 252 259 262 259 254 251 253 254 253 255 254 255
45 45 42 40 40 40 38 39 40 42 49 54 57 61 63 66 66 60 54 57 67 85 104 143 186 255 271 271 276 271 271 264 271 267 265 265 261 262 264 264 264 261 260
34 35 34 33 34 34 34 34 35 37 43 46 51 54 55 55 51 46 26 4 337 316 291 276 272 280 284 282 284 289 288 283 280 278 274 274 271 268 270 269 269 269 268
13 13 15 18 21 22 23 27 29 33 37 38 39 39 33 27 19 10 354 339 323 305 290 285 285 279 288 291 290 289 289 290 286 285 282 280 276 274 275 276 277 276 275
341 345 350 358 0 2 7 12 17 23 23 24 24 21 15 4 357 348 340 326 316 303 291 286 286 289 290 289 290 290 293 293 292 288 287 285 282 280 278 276 277 278 277
296 308 317 326 334 337 341 347 357 4 4 6 8 7 360 349 343 337 334 329 317 305 300 294 290 289 291 292 293 293 293 293 294 292 289 287 286 285 283 281 279 280 280
282 293 300 305 311 315 318 322 328 335 339 340 341 343 342 337 333 331 330 322 314 306 302 297 292 292 293 294 294 295 295 294 295 294 292 291 288 286 285 284 284 283 281
276 285 293 295 298 303 307 309 314 319 321 321 320 322 323 326 329 326 325 319 313 307 302 298 294 292 292 291 292 293 294 294 293 293 292 291 291 289 287 287 286 285 284
272 278 283 288 292 296 299 301 304 309 309 311 311 313 315 315 318 317 319 317 311 308 304 300 297 294 293 293 292 292 293 292 292 292 291 290 290 289 287 287 287 287 286
269 273 279 284 288 292 295 295 297 299 300 302 304 306 307 309 310 310 311 312 310 306 303 301 299 296 295 295 294 292 292 291 291 290 290 289 289 289 289 288 287 287 287
268 271 276 280 283 287 289 290 292 295 296 298 300 301 303 305 305 305 307 307 307 306 304 301 298 297 296 294 293 292 291 290 290 289 289 289 289 289 289 288 287 287 286
269 272 275 278 280 282 284 287 290 294 295 296 298 298 300 301 302 302 303 304 305 304 303 303 301 298 296 295 294 292 291 290 289 289 289 289 289 289 288 288 287 286 286
269 272 275 277 278 279 281 284 288 292 293 294 296 297 298 300 301 302 302 302 302 303 302 301 300 298 296 295 294 293 292 291 291 291 290 290 289 288 288 289 288 288 287
269 271 274 277 278 279 280 283 286 289 291 293 294 295 297 299 299 299 300 300 301 301 301 301 300 298 296 295 294 293 293 292 292 292 292 291 290 289 289 289 289 288 288
268 271 273 276 278 279 280 282 284 286 288 291 292 293 295 296 298 298 298 299 299 300 301 300 300 298 297 295 295 294 293 293 292 291 291 291 290 290 289 288 288 288 287
Height
5868 5865 5863 5860 5858 5856 5854 5853 5852 5852 5852 5852 5853 5855 5857 5858 5860 5862 5864 5865 5867 5868 5870 5872 5874 5875 5877 5879 5881 5883 5885 5886 5888 5890 5891 5893 5895 5896 5897 5898 5898 5899 5900
5869 5866 5864 5861 5859 5857 5855 5853 5853 5852 5852 5853 5854 5855 5856 5858 5860 5862 5863 5865 5866 5868 5869 5871 5873 5874 5876 5878 5880 5882 5884 5885 5887 5888 5890 5891 5893 5894 5894 5895 5896 5897 5897
5870 5868 5865 5862 5860 5858 5856 5855 5854 5853 5853 5854 5854 5855 5857 5859 5860 5862 5863 5865 5866 5868 5869 5870 5872 5874 5875 5877 5879 5881 5883 5884 5886 5887 5888 5889 5890 5891 5891 5892 5893 5894 5895
5872 5869 5867 5864 5862 5860 5858 5857 5856 5855 5855 5855 5855 5856 5857 5859 5861 5862 5864 5865 5866 5868 5869 5870 5872 5873 5875 5876 5878 5880 5881 5883 5884 5885 5886 5887 5888 5888 5888 5888 5889 5891 5892
5873 5871 5868 5866 5864 5862 5860 5859 5858 5857 5856 5856 5857 5857 5859 5860 5861 5863 5864 5865 5867 5868 5869 5871 5872 5873 5874 5876 5877 5879 5880 5881 5882 5884 5884 5885 5885 5885 5884 5884 5884 5886 5887
5875 5873 5870 5868 5866 5864 5862 5861 5860 5859 5858 5858 5859 5859 5860 5861 5862 5864 5865 5866 5867 5869 5870 5871 5872 5873 5874 5875 5876 5878 5879 5880 5881 5882 5883 5883 5883 5882 5879 5878 5878 5880 5882
5877 5875 5873 5870 5868 5867 5865 5863 5862 5861 5861 5860 5861 5861 5862 5863 5864 5865 5866 5867 5868 5869 5870 5871 5872 5873 5874 5874 5875 5876 5877 5878 5879 5880 5881 5881 5881 5879 5877 5876 5876 5877 5878
5879 5877 5875 5873 5871 5869 5867 5866 5865 5864 5863 5863 5863 5863 5863 5865 5865 5866 5867 5868 5869 5869 5870 5871 5872 5872 5873 5874 5875 5875 5876 5877 5878 5879 5879 5880 5880 5879 5877 5877 5877 5877 5877
5881 5879 5877 5875 5874 5872 5870 5869 5868 5866 5865 5864 5864 5864 5865 5865 5866 5867 5867 5868 5869 5870 5871 5871 5872 5872 5873 5874 5874 5875 5875 5876 5876 5877 5878 5878 5879 5878 5878 5877 5877 5877 5877
5883 5881 5879 5878 5876 5874 5872 5871 5870 5868 5867 5866 5865 5865 5866 5867 5868 5869 5869 5869 5870 5871 5871 5872 5872 5873 5873 5874 5874 5874 5875 5875 5875 5876 5876 5877 5877 5877 5877 5877 5877 5877 5877
5884 5883 5881 5880 5878 5876 5875 5873 5872 5870 5868 5867 5867 5867 5867 5868 5869 5870 5870 5871 5871 5871 5871 5872 5873 5873 5873 5874 5874 5874 5875 5875 5875 5875 5875 5875 5875 5876 5876 5876 5876 5876 5877
5886 5884 5883 5882 5880 5878 5877 5875 5874 5872 5870 5869 5868 5868 5869 5869 5870 5871 5871 5871 5872 5872 5872 5872 5873 5873 5873 5874 5874 5874 5874 5874 5874 5874 5874 5874 5874 5874 5874 5875 5875 5875 5875
5887 5886 5884 5883 5882 5880 5879 5877 5876 5874 5872 5870 5870 5870 5870 5870 5871 5871 5871 5872 5872 5872 5872 5872 5872 5873 5873 5873 5873 5873 5873 5873 5873 5873 5873 5873 5873 5873 5873 5873 5873 5873 5873
5887 5886 5885 5884 5883 5882 5880 5879 5877 5876 5874 5872 5872 5871 5872 5872 5872 5872 5872 5871 5871 5871 5871 5872 5872 5872 5872 5872 5872 5872 5872 5871 5871 5871 5871 5871 5870 5870 5870 5870 5870 5870 5870
5887 5887 5886 5885 5884 5883 5882 5880 5879 5877 5876 5874 5874 5873 5873 5873 5872 5872 5871 5871 5870 5870 5870 5870 5871 5871 5871 5871 5871 5870 5870 5870 5869 5869 5868 5868 5868 5867 5867 5867 5866 5866 5866
5887 5887 5886 5885 5884 5883 5882 5881 5880 5879 5877 5876 5875 5874 5873 5873 5872 5871 5870 5869 5868 5868 5868 5868 5869 5869 5869 5869 5869 5868 5868 5867 5867 5866 5866 5865 5865 5864 5863 5863 5863 5862 5862
5887 5886 5886 5885 5884 5883 5882 5881 5880 5879 5878 5877 5875 5874 5874 5873 5872 5870 5869 5868 5867 5866 5866 5866 5866 5866 5866 5866 5866 5865 5865 5864 5864 5863 5862 5861 5861 5860 5859 5859 5858 5857 5857
5886 5885 5885 5884 5883 5883 5882 5881 5880 5879 5878 5877 5875 5874 5873 5872 5871 5869 5868 5866 5865 5865 5864 5864 5863 5863 5863 5863 5862 5862 5861 5861 5860 5859 5858 5857 5856 5855 5854 5854 5853 5852 5852
5884 5884 5883 5883 5882 5881 5881 5880 5879 5878 5877 5876 5875 5873 5872 5871 5869 5868 5866 5865 5864 5863 5862 5861 5860 5860 5860 5859 5859 5858 5857 5856 5855 5854 5853 5852 5851 5850 5849 5848 5847 5846 5846
5882 5882 5881 5881 5880 5880 5879 5878 5877 5876 5875 5874 5873 5872 5871 5869 5868 5866 5864 5863 5861 5860 5859 5858 5857 5856 5855 5854 5854 5853 5852 5851 5850 5849 5847 5846 5845 5844 5843 5842 5841 5840 5839
5879 5879 5879 5879 5878 5877 5877 5876 5875 5874 5873 5872 5871 5870 5868 5867 5865 5863 5862 5860 5858 5856 5855 5854 5853 5852 5851 5850 5849 5847 5846 5845 5844 5842 5841 5840 5838 5837 5835 5834 5833 5831 5830
5877 5876 5876 5876 5875 5874 5874 5873 5872 5871 5870 5869 5868 5867 5865 5864 5862 5860 5858 5856 5854 5852 5851 5849 5848 5846 5845 5844 5842 5841 5840 5838 5837 5836 5834 5832 5830 5829 5827 5826 5824 5822 5821
5873 5873 5873 5872 5872 5871 5870 5870 5869 5868 5867 5866 5865 5863 5862 5860 5858 5856 5854 5852 5850 5848 5846 5844 5843 5841 5839 5838 5836 5834 5832 5830 5829 5827 5826 5824 5822 5820 5818 5816 5814 5812 5810
5869 5869 5869 5868 5868 5867 5866 5866 5865 5864 5863 5861 5860 5859 5857 5855 5854 5852 5850 5848 5845 5843 5841 5839 5837 5835 5832 5830 5828 5827 5824 5822 5820 5818 5817 5815 5813 5811 5808 5805 5803 5801 5799
5865 5864 5864 5864 5863 5863 5862 5861 5860 5859 5858 5857 5855 5854 5852 5850 5848 5846 5844 5842 5840 5837 5835 5832 5830 5827 5825 5823 5820 5818 5816 5814 5812 5810 5807 5805 5803 5801 5799 5795 5791 5788 5786
5860 5859 5859 5859 5858 5858 5857 5856 5855 5854 5853 5851 5850 5848 5846 5844 5842 5840 5838 5836 5833 5830 5827 5825 5822 5819 5816 5814 5811 5809 5807 5805 5802 5800 5797 5794 5791 5788 5787 5784 5780 5776 5773